Live Position
Loading 3D Globe...
About EPIC Hyper-1
Group: 3 satellites
Description loading...
Upcoming Passes
Passes for default location (London). Set your location on the main map for personalized predictions.
Altitude History
Loading altitude history...
No altitude history available
Two-Line Element Set
1 56225U 23054AZ 26105.57423712 .00000991 00000-0 60831-4 0 9990
2 56225 97.3776 344.0861 0009588 351.4286 8.6780 15.12289069165909
Epoch: Apr 15, 2026 •
Age: 7 hours
Current Status
Altitude 540.5 km
Velocity 7.59 km/s
Sub-Earth Point 38.70°N,
14.94°E
Launch Date Apr 15, 2023
Age 3 years
Type other
Technical Details
Classification Payload
Mass 10.00 kg
Dry Mass 10.00 kg
Total Mass 10.00 kg
Length 0.30 m
Diameter 0.20 m
Span 0.40 m
Shape Box + 2 pan
Manufacturer CLAAC
Bus Type Cubesat 6U
Phase Status In Orbit
Owner/State CLAAC/WYV/UK
Most Searched
Loading...